sat.trackr.live / text

‹ back to catalog

STARLINK-31002

NORAD 58495 · 2023-186Y

PAYLOAD ACTIVE UNKNOWN

§ Identity

Operator
Country
US
Launch date
2023-12-03
Launch site
AFETR
Launch vehicle
Mass (kg)
RCS (m²)

Purposes: comms

External: N2YO · Heavens-Above · Gunter

§ Orbital elements

Epoch: 2026-05-24T20:48:04.013568Z

Period
94.27 min
Inclination
43.0043°
Eccentricity
0.0001505
Mean motion
15.27582796 rev/d
Perigee alt
482.0 km
Apogee alt
484.1 km
Semi-major
6,861.2 km
B*
-1.2441e-5
RAAN
353.6787°
Arg perigee
268.1966°
Mean anomaly
91.8713°
Rev number
13,770

§ Raw data

STARLINK-310021 58495U 23186Y   26144.86671312 -.00000605  00000+0 -12441-4 0  99902 58495  43.0043 353.6787 0001505 268.1966  91.8713 15.27582796137704

JSON: /api/v1/satellites/58495 · /tle

For live sub-satellite position, see the globe view (requires WebGL).

§ Visibility from observer

Set your observer location to see the next 7 days of passes ≥ 10°. The values pass through the URL so the page stays shareable.

No JS? Fill the form by hand. The geolocation button needs JavaScript.